Location: Quedlinburg
(51.7921°N, 11.1414°E)
Time: 05:42:09
(UTC+02:00)

STRAND 1 - Pass Details

Date: 16 March 2026
Orbit: 761 x 775 km, 98.4° (Epoch: 16 April)

Event Time Altitude Azimuth Distance (km) Brightness Sun altitude
Rises 03:46:23 0° 126° (SE) 3,240 ? -24.7°
Reaches altitude 10° 03:49:00 10° 114° (ESE) 2,315 ? -24.3°
Maximum altitude 03:53:09 26° 59° (ENE) 1,493 ? -23.8°
Drops below altitude 10° 03:57:18 10° 5° (N) 2,320 ? -23.2°
Sets 03:59:56 0° 353° (N) 3,249 ? -22.8°
